Montana Department of Transportation

Main Content

Accidents and Incidents Report

Hourly Weather Roundup

ASUS45 KTFX 231510

RWRMT 

Montana Regional Weather Roundup

National Weather Service Great Falls MT

900 AM MDT FRI AUG 23 2019



NOTE: "FAIR" indicates few or no clouds below 12,000 feet with no

significant weather and/or obstructions to visibility.



MTZ001.007-043-231600-

West of the divide

  

CITY           SKY/WX    TMP DP  RH WIND       PRES   REMARKS

Kalispell      PTSUNNY   57  53  86 CALM      30.04S                  

Missoula       CLOUDY    56  53  90 W5        30.08R                  

Butte          CLOUDY    54  51  90 CALM      30.14S                  

Anaconda         N/A     55  55 100 CALM      30.11S                  

Deer Lodge       N/A     55  55 100 CALM      30.13S                  

Hamilton       MOSUNNY   57  50  77 S8        30.08S                  

Mullan Pass    FAIR      56  48  74 CALM      30.13R                  

Plains           N/A     56  54  93 CALM      30.05                   

Ronan            N/A     59  55  88 SW3       30.05R                  

Thompson Falls   N/A     56  56 100 NE3       30.08S                  

--------------------------------



MTZ008-052.055-231600-

Southwest Montana

  

CITY           SKY/WX    TMP DP  RH WIND       PRES   REMARKS

Bozeman        CLOUDY    56  49  77 CALM      30.10R                  

Dillon         CLOUDY    52  50  93 CALM      30.11S                  

Ennis          CLOUDY    54  50  87 CALM      30.16R                  

Three Forks      N/A     57  50  78 CALM      30.08R                  

Twin Bridges     N/A     54  49  83 CALM      30.09S                  

W Yellowstone  FAIR      46  43  87 CALM      30.15S                  

--------------------------------



MTZ009-010-012-014-046-048-049-054-231600-

East Slopes and Central Montana

  

CITY           SKY/WX    TMP DP  RH WIND       PRES   REMARKS

Cut Bank       FAIR      58  51  78 SW3       30.07F                  

Great Falls    CLOUDY    58  55  90 N6        30.07S                  

Helena         LGT RAIN  60  57  89 W3        30.08S                  

Malmstrom AFB  CLOUDY    57  53  85 N6        30.09R                  

Augusta        FAIR      59  54  83 W9        30.09S                  

Bowmans Corner   N/A     56  52  86 W7        30.08S                  

Choteau          N/A     61  55  82 VRB5      30.07S                  

Fairfield      FAIR      59  53  80 W5        30.08R                  

Power          FAIR      57  53  86 N7        30.08R                  

Raynesford     CLOUDY    55  56 100 W7        30.09R                  

Ulm            PTSUNNY   58  55  89 N7        30.08R                  

White Sulphur    N/A     55  54  94 NW5       30.09R                  

--------------------------------



MTZ011-013-016-021-045-047-050-051-231600-

North Central Montana

  

CITY           SKY/WX    TMP DP  RH WIND       PRES   REMARKS

Havre          CLOUDY    61  48  62 N9        30.04R                  

Lewistown      CLOUDY    58  55  90 CALM      30.06S                  

Chinook          N/A     61  52  72 W6        30.02S                  

Denton         PTSUNNY   57  55  92 NW15      30.02R                  

Geyser         PTSUNNY   57  56  97 W13       30.06S                  

Grass Range    FAIR      62  56  82 W9        30.01R                  

N Bar Ranch    FAIR      61  55  82 N7        30.09R                  

Roy              N/A     61  57  88 NW12      30.03R                  

Stanford       PTSUNNY   59  55  88 NW15      30.06S                  

Winifred       CLOUDY    58  55  91 W6        30.05R                  

--------------------------------



MTZ017.020-022.027-061-062-231600-

Northeast Montana

  

CITY           SKY/WX    TMP DP  RH WIND       PRES   REMARKS

Glasgow        CLOUDY    65  61  87 NW10      29.93R                  

Circle           N/A     66  63  88 SW10      29.93                   

Culbertson       N/A     66  66 100 SE5       29.88R                  

Glendive       FAIR      68  64  87 SW12      29.95RJordan           N/A     67 N/A N/A NW13      29.97R                  

Malta          CLOUDY    59  57  94 NW10      29.97R                  

Poplar           N/A     68  64  88 S5        29.89S                  

Scobey           N/A     64  55  72 NE3       29.91R                  

Sidney         CLOUDY    68  66  93 S9        29.91R                  

Wolf Point     PTSUNNY   70  62  76 W7        29.91S                  

--------------------------------



MTZ028.42-056.058-231600-

Southcentral and southeast Montana

  

CITY           SKY/WX    TMP DP  RH WIND       PRES   REMARKS

Baker          FAIR      69  61  75 SW7       29.97R                  

Big Timber     CLOUDY    59  48  67 W8        30.08R                  

Billings       LGT RAIN  62  56  80 S7        30.05R                  

Forsyth          N/A     64  61  88 W7        29.99S                  

Harlowton      FAIR      63  54  72 NW5       30.06R                  

Laurel           N/A     59  54  82 CALM      30.05R                  

Livingston     PTSUNNY   59  50  72 W8        30.08S                  

Miles City     CLOUDY    67  64  90 W14       29.98R                  

--------------------------------



Regional Reports...Dakotas/MN

  

CITY           SKY/WX    TMP DP  RH WIND       PRES   REMARKS

Williston      LGT RAIN  67  63  87 SE3       29.91S                  

Minot          CLOUDY    68  59  73 SE12      29.97S                  

Dickinson      CLOUDY    68  65  90 S15       29.94S                  

Beach          FAIR      72  64  78 SW7       29.96S                  

Crosby         CLOUDY    63  63 100 SE9       29.94R                  

Hettinger      CLOUDY    66  64  93 SE8       29.98S FOG              

Tioga          CLOUDY    64  64 100 S10       29.95S                  

Watford City   PTSUNNY   68  66  94 SE8       29.91S                  

Bismarck       CLOUDY    64  59  83 SE16      30.00F                  

Grand Forks    PTSUNNY   65  53  65 S15       30.15R                  

Fargo          FAIR      64  54  69 S9G18     30.16S                  

Buffalo SD       N/A     69  64  84 SE9       29.94S                  

Rapid City     CLOUDY    70  64  81 S8        29.96R                  

Intl Falls     FAIR      62  53  72 SE7       30.25F                  

Duluth         FAIR      63  48  58 E13       30.28S                  

Minneapolis    FAIR      66  57  72 E9        30.22R                  

--------------------------------



Regional Reports...WY/ID/WA

  

CITY           SKY/WX    TMP DP  RH WIND       PRES   REMARKS

Buffalo WY     FAIR      64  53  67 N9        30.09R                  

Cody           CLOUDY    60  51  72 NE7       30.10R                  

Gillette       FAIR      64  58  80 NW8       30.02R                  

Powell         FAIR      57  50  77 NW8       30.07                   

Sheridan       CLOUDY    63  55  75 NW9       30.05R                  

Yellowstone La   N/A     48  44  86 VRB3      30.21S                  

Boise          FAIR      62  45  53 S3        30.00R                  

Couer d'Alene  FAIR      61  57  87 S7        30.02R                  

Idaho Falls    FAIR      55  44  66 NE3       30.09R                  

Salmon         FAIR      54  47  77 NW3       30.11R                  

Spokane        PTSUNNY   61  52  72 SE7       30.00S                  

Seattle        PTSUNNY   57  52  83 S3        30.01S                  

--------------------------------



Regional Reports...Alberta

  

CITY           SKY/WX    TMP DP  RH WIND       PRES   REMARKS

Calgary        MOSUNNY   61  55  82 S15G23    29.95F                  

Crowsnest Pass   N/A     57  55  94 NW2         N/A                   

Edmonton       PTSUNNY   57  43  58 SE16      29.93F                  

Fort McMurray  PTSUNNY   50  46  87 E6        29.95S                  

High Level     LGT RAIN  46  45  93 VRB2      29.75F                  

Lethbridge     MOSUNNY   57  54  88 SE5       30.02F                  

Lloydminster   MOSUNNY   54  48  82 SE6       30.01F                  

Medicine Hat   PTSUNNY   54  54 100 SE3       30.03S FOG              

Milk River       N/A     57  57 100 S2          N/A                   

Onefour          N/A     54  54 100 NW6         N/A                   

Peace River    CLOUDY    50  46  87 S6        29.80F                  

Pincher Creek  SUNNY     57  52  82 CALM      30.03F                  

Raymond          N/A     57  52  82 E2          N/A                   

Waterton Gate    N/A     57  52  82 S8          N/A                   

Fort Smith NWT CLOUDY    48  43  81 SE8       29.84F                  

--------------------------------



Regional Reports...Saskatchewan

  

CITY           SKY/WX    TMP DP  RH WIND       PRES   REMARKS

Assiniboia       N/A     61  59  94 NW7         N/A                   

Coronach         N/A     64  61  88 S2          N/A                   

Cypress Hills    N/A     52  43  71 NE12G17     N/A                   

Estevan        LGT RAIN  63  57  82 SE18G26   29.93S                  

Moose Jaw        N/A     63  59  88 NE5         N/A                   

Prince Albert  MOSUNNY   55  54  94 NE7       30.03F                  

Regina         CLOUDY    63  59  88 SE6       29.95R                  

Rockglen         N/A     61  59  94 N3          N/A                   

Saskatoon      MOSUNNY   57  52  82 N10       29.99F                  

Swift Current  SUNNY     59  48  67 NE12      30.00R                  

Uranium City     N/A     54  50  87 SE3         N/A                   

Val Marie        N/A     55  54  94 NW8         N/A                   

--------------------------------